{"data":{"norad_id":26464,"intl_designator":"2000-045B","name":"CLUSTER II-FM8 (TANGO)","alt_names":[],"object_type":"PAYLOAD","status":"ACTIVE","operator":null,"country":"ESA","launch_date":"2000-08-09","launch_site_code":"TYMSC","launch_vehicle":null,"mission":null,"orbit_class":"UNKNOWN","rcs_meters":1.5887,"size_class":null,"mass_kg":null,"dimensions":null,"purposes":["science"],"wikipedia_slug":null,"has_3d_model":false,"image_url":null,"decayed_at":null,"tle_current":{"epoch":"2026-08-30T16:25:03.578016Z","epoch_age_seconds":1809639,"freshness":"OLD","line1":"1 26464U 00045B   26242.68406919  .00218879 -14532-2  00000+0 0  9992","line2":"2 26464 149.4895  65.8568 9133957 283.7320   2.2648  0.44936442 20644","mean_motion":0.44936442,"eccentricity":0.9133957,"inclination_deg":149.4895,"raan_deg":65.8568,"arg_perigee_deg":283.732,"mean_anomaly_deg":2.2648,"bstar":0,"rev_number":2064,"period_min":3204.526072625,"perigee_km":-142.57633699447,"apogee_km":131387.48156263,"semimajor_km":72000.58961282,"source":"CELESTRAK","updated_at":"2026-09-02T09:01:04.722653Z"}}}